Wind_Speed
6 5 4 3 2 1 2 4 6 7 9 11 12 12 13 12 12 12 12 12 12 10 10 9 9 9 9 9 9 9 8 7 6 5 5 5 5 4 4 3 3 3 2 2 2 2 3 3 2
7 6 5 4 2 1 1 2 4 6 8 10 11 12 12 12 12 11 11 11 11 10 9 9 9 8 9 9 9 9 9 7 6 5 5 5 5 4 3 3 3 2 2 2 2 2 2 2 3
8 8 7 5 3 2 1 1 3 5 7 9 11 12 12 11 11 11 11 11 11 10 9 9 9 8 8 8 9 9 9 7 6 5 5 5 5 4 3 3 3 2 2 2 2 2 2 2 2
10 9 9 7 5 4 3 1 1 3 6 8 10 11 11 11 11 11 11 11 11 10 9 9 9 9 8 8 8 9 8 8 6 6 5 5 5 4 4 3 3 3 3 2 2 2 2 2 2
11 11 10 8 7 6 5 3 2 2 4 7 8 10 11 11 11 10 11 11 11 10 9 8 8 8 8 8 8 8 8 7 6 6 6 6 5 4 3 3 3 3 3 3 3 3 3 2 2
11 11 10 9 7 7 6 5 3 3 3 6 8 9 11 11 11 11 11 11 10 9 8 7 8 8 8 8 8 7 7 7 6 6 6 5 4 3 3 4 3 3 4 4 4 4 3 3 3
13 12 11 10 10 9 8 6 5 5 5 7 8 9 10 11 11 11 11 10 10 9 8 7 7 7 8 8 7 7 7 6 6 6 5 5 4 4 4 4 3 3 4 4 4 4 4 4 4
15 14 12 12 12 11 10 9 7 6 6 7 7 8 9 10 10 11 10 10 10 9 8 7 7 7 8 8 7 7 7 6 5 5 5 5 5 4 4 4 4 4 4 4 4 5 5 5 4
16 14 13 13 13 12 12 11 9 8 7 8 8 8 9 9 10 11 10 10 10 9 7 7 7 7 7 8 7 7 7 6 5 5 5 5 5 5 5 5 5 4 4 4 5 5 5 5 5
16 15 15 15 14 14 13 12 11 9 9 10 9 9 9 9 9 10 10 9 9 8 7 6 6 6 7 8 7 7 7 6 5 5 5 6 6 6 5 5 5 6 6 5 5 5 5 5 5
16 15 15 16 16 15 14 14 13 12 11 11 11 10 8 8 9 9 9 9 8 8 7 6 5 6 7 8 7 7 7 6 5 5 5 6 6 6 5 5 5 6 5 5 4 4 4 4 5
18 17 17 17 17 17 16 16 15 14 12 12 12 11 10 9 8 9 8 9 8 7 7 7 6 6 7 8 8 8 7 6 6 6 6 5 5 6 5 5 5 5 5 4 3 3 3 4 4
20 18 17 17 18 17 17 17 15 14 13 12 13 12 11 10 8 7 8 9 9 8 7 7 7 7 8 8 8 8 7 6 6 6 6 5 5 5 5 5 4 4 4 4 4 4 4 4 4
20 19 18 18 19 19 18 17 15 14 14 14 13 12 11 11 8 8 8 9 9 9 8 8 8 8 8 8 8 8 7 6 7 6 6 5 6 6 4 4 4 4 5 5 5 4 4 5 5
21 20 19 18 19 19 19 17 16 16 17 16 15 14 12 12 10 9 9 9 8 9 9 9 9 8 9 9 9 9 7 7 7 6 6 6 6 7 6 5 5 5 5 5 6 6 5 5 5
22 21 20 19 20 20 20 18 17 17 18 18 17 15 14 13 12 11 10 10 9 9 10 10 9 9 9 9 9 9 8 7 7 6 7 7 7 7 7 6 6 6 6 5 6 7 7 6 6
23 23 22 21 21 21 21 19 19 19 19 19 19 17 16 14 13 12 11 10 10 10 11 9 9 9 10 10 9 9 9 8 8 8 8 8 8 8 7 7 7 7 8 7 7 7 7 7 7
24 24 23 22 22 23 23 22 21 21 21 19 19 18 16 15 14 13 12 12 11 11 11 9 9 9 9 9 9 10 10 9 8 8 9 9 9 9 8 8 8 9 9 9 8 8 8 8 8
25 25 24 23 23 24 23 23 21 21 21 20 19 18 16 16 15 14 14 13 12 11 10 10 10 10 9 9 9 9 9 8 8 9 9 9 9 9 9 9 9 10 10 10 9 9 8 8 9
26 26 25 24 24 26 25 24 23 22 21 20 20 18 16 15 15 14 14 14 13 12 11 11 11 11 10 11 10 9 9 9 10 10 10 10 10 10 10 10 10 10 11 11 11 10 9 9 10
26 26 26 26 26 27 26 26 24 23 23 21 20 19 17 16 16 15 14 13 14 14 13 12 12 12 12 11 11 10 11 11 11 11 11 11 11 11 11 11 11 12 12 12 12 11 11 11 11
27 26 27 27 27 28 28 28 24 23 24 22 21 21 19 17 16 15 16 16 15 15 14 14 13 13 13 13 12 12 12 12 12 12 12 12 12 12 12 12 12 12 12 13 13 13 12 12 12
27 27 28 28 29 29 29 30 26 24 24 23 22 22 20 19 18 18 17 17 17 16 16 15 15 15 15 14 14 14 13 13 13 14 14 14 13 13 13 13 12 12 13 13 13 13 13 13 13
28 28 29 29 30 31 29 31 29 25 24 23 23 22 22 20 20 19 19 18 18 17 17 17 16 16 16 16 16 16 16 15 15 16 16 16 15 15 14 14 14 14 13 13 14 14 14 14 14
28 29 30 31 32 32 30 32 31 26 24 23 22 23 23 21 20 20 20 19 18 18 17 17 17 17 17 17 17 17 17 17 17 17 18 17 17 17 16 15 15 15 15 15 15 15 15 15 15
28 28 29 31 32 32 31 33 32 30 27 25 24 25 25 23 22 21 21 20 19 19 18 18 18 18 18 18 18 19 19 19 19 19 19 19 18 18 17 17 17 16 16 16 16 17 17 16 16
27 27 27 29 29 30 32 33 32 31 29 27 26 25 25 24 23 22 22 21 21 20 20 19 19 19 18 18 19 20 20 21 20 20 20 20 19 19 18 18 18 18 19 18 18 18 18 18 18
28 28 27 28 29 30 31 31 31 30 30 28 27 27 26 26 26 25 24 23 22 21 20 20 21 21 20 20 20 20 20 20 20 21 21 20 20 20 19 19 19 20 20 19 19 19 19 19 19
28 28 28 29 30 30 31 31 28 28 29 29 28 28 26 26 26 26 26 25 24 23 22 22 23 23 23 23 22 22 23 23 22 22 22 22 21 20 19 19 20 20 21 22 22 22 21 21 21
29 28 29 30 30 30 31 30 27 27 27 27 27 27 26 25 25 26 27 27 25 25 24 25 24 24 24 24 25 24 24 24 23 23 23 22 21 21 20 20 21 21 22 22 23 23 23 23 23
Wind_Direction
203 210 212 208 188 107 64 58 50 42 38 28 21 16 12 8 7 6 6 6 4 3 7 7 8 14 18 18 18 15 12 10 6 1 358 357 358 359 355 350 346 350 358 4 9 4 354 343 341
213 214 218 213 197 143 94 76 52 43 37 28 18 12 6 1 1 2 1 1 360 358 2 5 5 11 16 17 17 16 14 13 10 6 4 358 355 352 350 341 331 325 335 346 355 358 351 337 324
220 223 225 223 214 237 214 121 61 46 33 24 17 9 1 357 357 357 357 354 353 353 358 2 5 11 16 18 17 17 18 18 13 13 9 358 348 341 335 329 319 306 306 318 325 333 338 338 330
227 231 231 227 223 228 233 221 40 25 22 15 10 5 0 360 355 354 354 352 349 350 356 2 8 12 15 18 16 14 16 18 15 13 10 359 343 333 329 330 322 306 296 296 296 302 314 319 320
234 234 234 229 227 230 239 245 261 327 8 7 3 1 356 354 350 349 349 350 347 350 357 5 11 14 14 15 14 10 10 10 13 11 5 356 346 336 332 327 315 305 291 285 286 296 297 304 304
237 236 233 234 235 240 244 255 272 294 336 351 349 351 349 348 348 346 343 346 347 352 0 7 10 12 14 14 11 7 6 5 6 1 357 354 347 342 335 332 319 308 298 287 283 280 284 287 298
237 236 234 240 243 246 248 257 274 293 307 323 332 342 344 345 344 341 339 343 346 348 355 360 1 6 9 8 8 5 0 0 360 358 354 355 350 340 334 321 312 299 290 288 289 286 283 284 285
240 239 238 240 242 244 251 258 273 287 298 311 322 333 338 340 340 337 334 337 340 341 348 356 358 1 2 359 359 356 351 351 350 350 345 347 342 334 325 320 309 300 295 289 283 284 282 283 285
243 240 238 238 241 245 251 258 272 280 290 305 314 330 335 335 337 334 331 332 335 336 337 347 352 355 355 353 350 350 350 350 348 343 342 339 336 330 320 313 312 301 294 294 288 285 281 277 281
244 241 238 239 240 243 249 258 269 273 281 298 306 319 327 329 331 334 332 333 334 335 334 336 340 346 348 348 344 342 344 346 346 347 342 337 334 327 317 309 308 299 291 293 290 288 280 272 276
244 242 242 242 241 242 249 256 264 269 275 290 302 309 316 319 323 329 331 333 333 336 336 332 330 336 337 338 340 339 335 338 338 335 329 330 329 326 315 308 305 296 290 286 287 281 279 275 274
244 244 246 246 244 244 251 257 262 267 275 281 289 298 307 308 314 318 323 329 333 333 332 330 325 330 333 332 333 332 328 323 321 317 314 316 319 321 317 309 306 298 291 291 294 282 278 278 272
245 248 249 249 246 246 251 256 259 261 269 277 280 284 291 291 296 307 312 318 321 321 326 324 323 323 325 327 327 326 323 314 309 313 311 307 307 310 314 309 305 294 285 277 278 275 267 271 274
247 248 249 251 250 249 252 252 254 257 263 270 275 280 281 278 282 295 304 311 312 314 316 321 321 323 322 323 323 324 322 315 309 310 308 302 303 303 299 296 296 287 276 270 269 270 265 271 273
248 248 249 250 250 251 250 249 255 258 259 264 268 275 277 270 274 284 296 302 302 307 309 315 317 319 319 319 320 319 315 312 313 309 308 306 304 298 289 280 282 282 280 270 267 268 267 271 276
248 248 247 249 250 250 252 251 254 256 257 259 262 266 271 272 275 280 289 297 297 301 305 308 313 314 313 314 314 312 308 309 309 307 305 304 303 299 288 280 281 275 272 271 265 263 261 264 272
248 249 250 250 250 250 252 252 251 253 255 258 262 265 269 270 272 276 281 290 296 300 302 303 307 307 311 315 316 317 312 309 310 306 301 297 296 295 290 282 281 274 267 265 262 262 264 268 270
251 252 252 251 250 252 254 254 253 252 256 258 261 266 269 270 273 277 278 284 289 296 298 298 303 304 308 315 316 313 313 306 304 303 298 291 291 291 290 285 277 271 264 263 262 263 267 272 270
251 251 252 250 250 252 253 253 253 251 253 255 258 263 269 272 275 280 277 279 284 292 296 296 301 310 309 308 310 306 309 306 302 302 303 301 295 294 290 285 276 270 264 261 263 265 270 277 275
250 252 252 251 250 252 252 253 254 252 253 255 257 259 264 269 270 276 277 275 279 282 288 291 297 302 304 302 303 303 304 301 300 301 301 300 298 295 293 287 279 272 264 260 261 263 269 275 278
249 251 252 251 250 251 253 253 253 254 253 256 257 256 258 265 267 269 270 272 279 282 282 285 290 293 294 293 292 293 293 297 295 296 297 299 297 293 291 286 276 270 261 258 260 262 267 273 277
249 249 251 251 251 251 253 254 251 253 253 256 258 254 255 259 261 264 268 269 273 278 277 278 282 286 287 285 285 287 290 291 293 292 291 293 294 292 289 286 278 269 261 258 260 264 267 272 277
247 247 249 251 252 251 251 254 251 251 253 257 257 253 252 255 258 264 266 265 267 274 275 273 275 281 281 280 282 282 283 287 289 290 289 289 289 287 285 280 276 270 262 259 261 265 268 271 274
247 247 249 250 252 251 249 252 252 250 253 255 252 252 251 254 256 261 264 264 267 271 274 273 272 276 276 278 280 279 279 281 286 288 288 287 286 284 282 280 275 271 266 264 264 268 272 272 273
248 249 249 251 252 252 250 250 251 250 252 251 251 252 252 254 256 259 262 263 267 270 271 270 271 275 277 277 279 282 278 279 283 287 287 285 282 280 279 277 276 273 269 268 267 271 276 276 275
251 251 252 254 255 254 251 250 251 250 250 248 250 250 251 254 255 259 260 262 265 268 269 270 273 276 277 277 278 282 281 281 284 286 285 283 281 279 276 274 274 273 270 270 270 271 272 273 272
250 250 252 254 255 255 253 253 252 251 250 249 251 251 252 253 254 256 260 261 263 264 266 268 271 274 275 276 277 279 279 279 282 284 284 281 279 276 274 272 272 271 269 269 269 270 272 272 272
251 250 249 250 254 255 255 255 254 251 249 248 251 253 251 252 256 260 261 260 261 262 264 266 269 272 273 275 276 276 279 282 282 283 283 281 277 273 271 270 270 271 270 269 270 271 273 272 271
250 249 248 250 254 255 256 256 256 255 252 251 252 253 254 256 260 262 260 260 259 261 264 267 269 273 272 274 275 276 277 282 283 282 281 280 277 274 270 269 269 271 271 269 269 270 272 273 272
251 249 248 250 253 255 257 257 257 257 255 253 254 253 256 258 260 260 259 258 259 262 264 266 267 271 272 273 274 275 277 280 281 280 280 279 277 276 274 271 270 272 273 271 270 270 271 272 272
Height
5887 5888 5889 5890 5891 5890 5889 5889 5888 5887 5887 5887 5886 5885 5884 5884 5884 5885 5882 5880 5879 5878 5876 5875 5874 5872 5871 5870 5869 5868 5868 5867 5867 5868 5868 5868 5868 5868 5868 5868 5868 5869 5869 5869 5869 5869 5869 5869 5869
5887 5888 5890 5891 5890 5890 5889 5889 5888 5888 5887 5887 5886 5886 5885 5884 5884 5883 5881 5880 5879 5878 5876 5875 5874 5872 5871 5870 5869 5868 5867 5866 5867 5867 5868 5868 5868 5868 5868 5868 5868 5868 5869 5869 5869 5869 5869 5869 5869
5887 5888 5890 5890 5890 5890 5890 5889 5888 5888 5887 5887 5886 5886 5885 5884 5884 5882 5882 5880 5879 5878 5876 5875 5874 5872 5871 5870 5869 5868 5867 5866 5867 5867 5867 5867 5867 5867 5867 5867 5867 5868 5868 5869 5869 5869 5869 5869 5869
5887 5888 5889 5890 5889 5889 5889 5889 5888 5887 5887 5887 5887 5886 5885 5885 5884 5883 5881 5880 5879 5878 5876 5875 5874 5872 5871 5870 5870 5869 5868 5867 5867 5867 5867 5867 5867 5867 5867 5867 5867 5867 5868 5868 5868 5868 5868 5868 5868
5886 5887 5888 5888 5888 5889 5888 5888 5888 5888 5887 5887 5887 5886 5885 5885 5883 5882 5881 5880 5879 5877 5876 5874 5873 5872 5871 5870 5870 5869 5868 5868 5867 5867 5867 5867 5866 5866 5866 5867 5867 5867 5867 5867 5868 5868 5868 5868 5868
5885 5886 5887 5887 5887 5888 5888 5887 5887 5887 5887 5887 5886 5886 5885 5884 5883 5882 5881 5880 5879 5877 5876 5874 5873 5872 5871 5870 5870 5869 5869 5868 5867 5867 5867 5866 5866 5866 5866 5866 5866 5866 5866 5866 5867 5867 5867 5867 5867
5883 5884 5885 5886 5886 5886 5887 5886 5886 5886 5886 5886 5886 5885 5884 5883 5882 5881 5880 5879 5878 5877 5875 5874 5873 5872 5871 5871 5870 5869 5868 5868 5867 5867 5867 5866 5866 5865 5865 5865 5865 5865 5865 5866 5866 5866 5866 5866 5866
5880 5882 5883 5884 5884 5885 5885 5885 5885 5885 5885 5885 5885 5885 5883 5883 5882 5881 5880 5879 5878 5877 5875 5874 5873 5872 5871 5870 5870 5869 5868 5868 5867 5867 5866 5866 5865 5865 5865 5864 5864 5864 5864 5864 5865 5865 5865 5866 5866
5878 5881 5881 5882 5883 5883 5883 5884 5884 5884 5884 5884 5884 5884 5883 5882 5881 5880 5879 5878 5877 5876 5875 5874 5873 5872 5871 5870 5869 5869 5868 5867 5867 5866 5866 5865 5865 5864 5864 5864 5863 5863 5863 5863 5864 5864 5864 5865 5865
5876 5878 5880 5881 5881 5881 5881 5882 5882 5882 5883 5883 5883 5882 5882 5881 5881 5880 5879 5878 5877 5875 5874 5873 5872 5871 5871 5870 5869 5868 5868 5867 5866 5865 5865 5865 5864 5864 5863 5863 5862 5862 5862 5862 5863 5863 5863 5864 5864
5873 5875 5877 5877 5878 5879 5879 5880 5880 5880 5881 5881 5881 5881 5881 5880 5880 5879 5878 5877 5876 5875 5873 5872 5872 5871 5870 5870 5869 5868 5867 5867 5866 5865 5865 5864 5864 5863 5862 5862 5862 5861 5861 5861 5861 5862 5862 5863 5863
5871 5873 5874 5875 5875 5876 5877 5878 5878 5878 5879 5879 5879 5879 5880 5879 5879 5878 5877 5876 5875 5874 5873 5872 5871 5870 5870 5869 5868 5867 5867 5866 5865 5865 5864 5863 5863 5862 5862 5861 5861 5860 5860 5860 5861 5861 5861 5862 5862
5868 5870 5870 5871 5872 5873 5874 5875 5876 5876 5877 5877 5877 5877 5878 5877 5877 5876 5876 5875 5874 5873 5872 5871 5870 5870 5869 5868 5867 5866 5865 5865 5864 5864 5863 5862 5862 5861 5861 5860 5860 5859 5859 5860 5860 5860 5861 5861 5861
5864 5866 5867 5868 5869 5870 5870 5872 5873 5874 5874 5874 5874 5875 5875 5875 5875 5875 5874 5873 5872 5872 5871 5870 5869 5868 5867 5867 5866 5865 5864 5863 5863 5862 5862 5861 5861 5860 5860 5859 5859 5859 5859 5859 5859 5860 5860 5860 5861
5860 5862 5864 5865 5865 5866 5867 5869 5870 5871 5871 5871 5872 5872 5873 5872 5872 5872 5872 5872 5871 5870 5869 5868 5868 5867 5867 5865 5864 5863 5863 5862 5861 5861 5860 5860 5859 5859 5858 5858 5858 5857 5857 5857 5858 5858 5859 5859 5859
5856 5858 5860 5861 5861 5862 5865 5866 5867 5867 5867 5867 5868 5869 5870 5870 5870 5870 5870 5870 5869 5868 5867 5866 5866 5866 5865 5864 5863 5862 5861 5860 5860 5859 5858 5858 5857 5857 5857 5856 5856 5856 5856 5856 5857 5857 5858 5858 5858
5852 5853 5855 5857 5857 5858 5859 5861 5862 5862 5863 5864 5864 5865 5866 5867 5867 5867 5867 5867 5867 5866 5865 5864 5864 5864 5863 5863 5862 5861 5860 5859 5858 5857 5856 5856 5855 5855 5855 5854 5854 5854 5854 5855 5855 5855 5856 5856 5856
5848 5848 5850 5852 5853 5853 5854 5856 5858 5858 5859 5860 5861 5862 5862 5863 5863 5864 5864 5864 5864 5863 5862 5862 5862 5862 5861 5861 5860 5859 5858 5857 5857 5856 5855 5854 5853 5853 5853 5852 5852 5852 5852 5853 5853 5853 5854 5854 5854
5842 5843 5845 5847 5848 5848 5849 5851 5853 5854 5855 5856 5857 5858 5859 5859 5860 5860 5860 5861 5861 5861 5861 5861 5860 5860 5859 5858 5858 5857 5857 5856 5855 5854 5853 5852 5851 5851 5850 5850 5850 5850 5850 5851 5851 5851 5852 5852 5852
5835 5837 5839 5841 5842 5843 5844 5846 5848 5849 5850 5851 5853 5854 5855 5855 5856 5856 5857 5857 5858 5859 5858 5858 5858 5858 5857 5857 5856 5855 5854 5854 5853 5853 5852 5851 5850 5849 5848 5848 5848 5848 5848 5848 5849 5849 5849 5850 5850
5830 5832 5834 5835 5836 5837 5839 5840 5843 5844 5845 5847 5849 5849 5851 5851 5853 5853 5854 5854 5855 5856 5856 5855 5855 5855 5855 5854 5853 5853 5852 5851 5851 5850 5849 5848 5847 5847 5846 5845 5845 5845 5845 5846 5846 5846 5847 5847 5847
5824 5826 5827 5828 5829 5831 5833 5833 5837 5839 5840 5842 5843 5845 5846 5847 5848 5849 5850 5851 5851 5852 5852 5852 5852 5852 5851 5851 5851 5850 5850 5849 5848 5848 5847 5846 5845 5844 5844 5843 5842 5842 5842 5843 5843 5843 5844 5844 5844
5818 5819 5820 5821 5822 5824 5826 5827 5831 5833 5834 5837 5838 5839 5841 5842 5844 5845 5846 5847 5847 5848 5848 5848 5848 5848 5848 5848 5848 5847 5847 5846 5845 5845 5844 5843 5842 5841 5841 5840 5839 5839 5839 5840 5840 5840 5841 5841 5841
5811 5812 5813 5814 5815 5817 5821 5821 5823 5827 5829 5831 5832 5834 5836 5837 5839 5840 5841 5842 5843 5843 5843 5843 5844 5844 5844 5844 5844 5844 5843 5843 5842 5841 5840 5839 5839 5838 5838 5837 5836 5836 5836 5836 5837 5837 5837 5837 5837
5804 5806 5807 5807 5808 5810 5814 5814 5817 5821 5824 5825 5827 5829 5830 5832 5834 5835 5836 5837 5838 5839 5839 5839 5839 5839 5839 5839 5839 5839 5839 5838 5838 5837 5836 5835 5835 5834 5834 5833 5833 5833 5833 5833 5833 5833 5833 5833 5833
5798 5800 5801 5802 5803 5805 5806 5807 5812 5814 5818 5820 5821 5823 5825 5827 5829 5830 5830 5831 5832 5833 5834 5834 5835 5835 5835 5835 5835 5835 5834 5834 5833 5833 5832 5831 5830 5830 5829 5829 5829 5829 5828 5829 5829 5828 5829 5829 5829
5791 5792 5795 5795 5796 5798 5799 5802 5805 5808 5811 5814 5815 5817 5819 5821 5823 5824 5825 5826 5827 5827 5828 5829 5830 5830 5830 5830 5830 5830 5829 5829 5828 5828 5826 5826 5825 5825 5825 5824 5824 5824 5824 5824 5824 5824 5824 5824 5823
5784 5786 5787 5788 5789 5790 5793 5795 5799 5802 5804 5807 5810 5811 5813 5815 5816 5817 5819 5820 5821 5821 5822 5823 5824 5824 5825 5825 5824 5824 5824 5823 5823 5822 5821 5820 5820 5819 5819 5819 5819 5819 5819 5819 5819 5819 5819 5819 5818
5777 5779 5780 5782 5783 5785 5786 5791 5793 5795 5798 5801 5803 5805 5807 5808 5809 5811 5812 5813 5814 5815 5816 5817 5818 5818 5818 5818 5818 5818 5818 5817 5817 5816 5816 5815 5814 5813 5813 5813 5813 5813 5813 5813 5813 5813 5813 5813 5812
5770 5772 5774 5776 5778 5779 5781 5786 5787 5789 5791 5794 5796 5798 5800 5801 5803 5804 5806 5807 5808 5809 5809 5810 5811 5811 5811 5812 5812 5812 5811 5811 5810 5810 5809 5809 5808 5807 5807 5807 5807 5807 5807 5807 5806 5807 5806 5806 5806